Location: ????????
(54.8751°N, 38.5756°E)
Time: 12:20:54
(UTC+00:00)

NOSS 3-4 (A) - Pass Details

Date: 14 April 2024
Orbit: 806 x 1405 km, 63.4° (Epoch: 14 May)

Event Time Altitude Azimuth Distance (km) Brightness Sun altitude
Exits shadow 00:16:44 26° 235° (SW) 1,632 4.1 -16.4°
Maximum altitude 00:20:07 83° 321° (NW) 903 3.3 -16.0°
Drops below altitude 10° 00:26:28 10° 51° (NE) 2,746 7.3 -15.4°
Sets 00:29:14 0° 52° (NE) 3,788 8.5 -15.1°
